GFSSW_925_rhum_309.txt.gz
RH
90 90 90 89 86 84 76 67 59 71 55 28 29 24 27 20 22 23 49 57 54 56 32 37 32 32 32 45 37 34 29 34 30 32 25 30 27 29 28 30 47 53 60 58 57
95 94 86 79 75 61 63 68 69 44 19 12 30 26 26 27 14 17 34 51 50 45 28 35 42 36 45 44 46 37 27 21 26 27 31 31 29 29 26 32 43 49 49 56 56
94 77 57 44 36 32 45 54 62 28 16 14 13 28 27 22 18 18 17 22 21 22 26 34 39 33 38 42 49 38 23 24 34 31 27 27 31 36 32 50 64 57 55 52 54
94 75 50 40 43 29 18 9 14 13 14 16 20 21 20 21 6 13 11 11 17 24 28 35 37 35 34 37 40 36 42 39 36 37 30 28 31 35 55 64 53 50 51 49 52
96 87 68 42 22 7 5 4 5 8 18 16 17 19 28 22 17 15 11 11 20 24 32 34 40 38 30 39 39 49 43 38 36 36 33 32 38 38 56 49 46 44 45 49 50
95 57 15 10 6 5 5 5 8 14 15 19 22 20 15 11 17 12 12 12 16 28 35 36 37 37 44 45 38 36 33 33 33 36 34 36 32 30 48 42 43 42 44 45 49
71 63 83 56 31 8 3 3 6 10 15 25 27 19 23 22 21 11 14 13 14 22 30 37 34 32 34 35 34 32 34 29 28 30 34 35 39 34 47 42 45 47 42 43 45
96 95 70 16 6 4 3 3 12 10 21 33 36 19 32 23 16 13 11 10 12 15 32 36 29 35 30 30 25 27 27 22 18 28 22 29 37 52 46 44 49 45 46 42 43
96 72 18 4 3 5 3 10 18 21 25 29 25 24 30 20 17 17 13 13 12 16 25 30 31 45 32 22 17 26 15 30 24 22 21 32 35 60 48 46 49 47 47 43 42
65 22 7 5 5 5 5 19 20 19 23 23 18 16 24 26 23 16 14 14 16 16 20 25 38 43 52 21 19 16 28 37 30 26 20 19 33 60 54 50 52 50 48 46 44
35 14 9 8 7 5 6 11 12 15 31 34 30 26 22 22 21 16 18 16 15 22 18 26 20 20 23 38 30 30 32 36 33 23 21 22 23 50 56 52 52 52 51 49 47
21 14 10 9 8 7 8 36 40 28 28 33 24 21 22 25 24 22 18 16 15 21 19 24 22 26 23 26 37 32 37 40 28 24 22 24 24 54 63 62 56 53 54 53 50
16 13 10 12 10 10 28 49 50 47 20 33 26 24 25 22 28 28 23 18 16 18 20 20 24 24 25 24 28 30 44 31 30 25 25 26 25 60 71 58 51 56 56 54 56
15 13 12 12 12 18 28 49 56 60 30 35 33 25 23 22 27 24 22 19 18 17 18 19 19 21 23 23 24 41 28 27 32 35 37 32 34 41 77 68 56 62 62 61 60
20 16 13 11 14 20 25 37 60 60 46 37 32 20 22 26 24 26 24 18 17 18 18 22 26 24 24 22 20 31 37 41 45 54 58 42 45 30 78 83 68 64 64 63 61
25 19 14 15 14 22 28 49 62 44 41 35 28 29 24 26 29 28 25 23 22 21 25 20 21 21 23 36 31 36 41 45 55 64 79 53 41 40 59 71 78 68 69 63 66
27 24 17 15 22 21 31 32 48 50 22 26 29 29 28 29 30 30 32 34 38 34 29 24 25 27 27 34 36 47 60 71 71 83 63 56 58 65 64 85 68 73 75 69 68
31 28 25 20 21 22 20 27 28 20 25 27 26 28 28 31 32 34 33 41 69 57 46 55 49 30 31 48 47 46 61 70 62 51 33 58 74 63 73 86 85 83 82 67 69
35 31 32 20 20 19 26 46 25 21 27 24 25 29 31 32 30 35 37 57 54 63 45 58 45 34 34 34 41 52 71 60 71 80 93 59 65 60 85 88 87 82 74 73 76
36 35 35 20 18 15 26 31 20 29 29 25 22 22 28 36 32 32 41 54 58 53 54 55 56 38 40 48 58 57 56 76 88 91 100 78 82 68 63 69 79 84 75 77 81
37 34 34 23 21 40 46 30 28 30 27 29 32 31 29 28 35 37 52 54 48 59 53 61 70 50 41 64 67 78 80 81 75 83 91 80 79 72 58 63 71 83 75 87 89
39 18 34 27 36 55 56 53 49 37 33 31 31 35 35 36 38 47 53 50 53 58 66 72 78 77 59 80 85 80 70 72 75 80 98 92 80 92 71 84 81 85 81 85 85
50 56 44 30 35 39 38 37 37 36 37 39 42 40 36 39 52 46 45 36 54 52 70 72 82 92 74 67 78 100 93 84 86 86 86 90 81 91 89 86 83 89 89 88 79
55 30 57 52 46 38 41 45 46 43 37 39 40 41 47 52 50 65 51 38 55 49 42 54 86 75 76 66 71 97 99 95 78 89 78 81 65 64 93 90 84 82 84 91 89
63 50 63 40 58 51 52 54 60 58 53 47 50 51 60 70 66 66 56 54 53 51 56 70 93 94 82 69 74 59 68 95 93 75 87 69 83 65 84 90 90 91 85 76 76
69 72 82 77 66 67 63 76 70 63 65 65 72 59 81 84 78 78 78 76 79 70 79 82 88 76 91 75 79 90 75 74 80 73 92 100 92 87 95 95 88 86 87 83 83
94 84 72 81 90 82 83 75 74 64 56 56 60 76 86 80 74 76 77 77 82 94 90 94 92 93 90 73 91 95 91 86 96 97 96 97 93 98 95 96 95 96 96 97 94

GFSSW_925_rhum_315.txt.gz
RH
96 92 82 78 64 42 22 9 6 12 13 26 25 25 15 16 16 22 29 52 56 56 30 26 22 19 20 22 22 19 12 9 14 15 17 17 18 19 19 26 34 36 38 36 36
95 86 75 65 39 21 10 6 5 9 13 13 26 25 19 17 11 12 35 51 53 29 25 22 17 15 16 19 19 18 12 12 16 17 17 19 18 20 20 28 34 35 35 36 36
95 75 48 28 21 10 8 6 6 7 11 16 16 24 20 24 14 11 13 11 21 27 25 27 20 14 16 17 19 16 12 13 20 23 21 21 26 26 22 36 40 38 35 34 35
88 67 31 12 10 6 6 5 6 6 10 16 18 18 17 23 12 13 12 11 20 28 24 21 15 12 13 15 19 17 19 17 25 26 22 22 25 35 38 42 34 32 32 32 33
90 70 34 10 5 5 5 5 6 6 13 14 16 18 34 10 13 15 12 14 19 23 23 19 15 15 11 14 17 15 20 21 24 25 23 23 27 33 39 32 28 26 28 30 32
76 60 28 13 5 6 6 4 8 10 11 13 17 16 18 9 19 14 16 13 18 21 23 21 23 20 17 18 18 20 23 20 21 22 24 25 28 28 35 29 27 25 24 25 29
76 41 15 5 4 5 4 4 8 9 15 19 17 18 16 19 18 14 14 14 17 25 22 26 26 18 17 22 22 20 18 16 17 18 22 24 28 28 32 28 26 24 23 23 24
51 14 9 7 6 6 6 13 13 18 21 22 17 17 23 23 19 14 13 11 16 22 25 23 23 21 19 18 14 14 14 11 16 16 19 24 16 32 29 27 26 23 21 21 22
30 14 11 10 7 6 15 21 25 23 21 20 21 19 23 19 18 16 16 15 12 20 20 17 18 21 19 16 13 12 10 11 13 13 15 20 19 30 29 30 26 23 20 20 20
28 14 10 10 8 7 16 24 16 18 18 15 14 18 17 19 20 17 17 18 12 14 15 14 14 18 15 14 18 14 11 10 12 14 14 13 13 25 26 26 25 23 20 20 20
23 14 10 12 9 8 15 20 19 21 22 23 20 18 18 20 20 16 20 17 11 12 16 17 18 15 14 18 19 16 15 14 12 13 19 15 13 11 25 24 23 22 21 21 21
14 12 10 11 9 10 28 23 36 34 23 22 20 19 20 23 18 15 18 14 14 16 16 20 19 19 17 18 19 17 21 19 15 17 18 13 12 10 18 24 21 22 23 22 22
14 12 10 10 8 15 35 49 41 41 21 26 21 20 21 20 19 18 17 14 13 15 17 17 22 19 18 20 24 23 29 25 22 17 14 17 16 13 16 26 28 26 24 25 24
13 13 11 10 19 21 33 42 46 44 26 32 28 22 20 20 22 19 19 19 15 15 15 16 18 18 19 19 17 23 20 21 25 26 26 17 20 8 22 33 30 26 26 25 25
13 14 12 8 12 26 24 30 47 56 80 34 27 21 21 24 24 23 23 18 16 16 16 20 20 20 21 19 16 27 22 22 25 39 41 21 31 14 24 28 29 26 26 26 26
19 14 13 13 15 20 26 40 54 58 83 38 27 26 25 23 25 22 21 17 18 18 16 18 17 16 20 24 20 24 22 22 23 33 59 31 24 16 26 38 38 33 32 30 30
16 16 13 13 29 20 24 39 69 68 27 29 28 24 23 24 25 22 22 26 35 26 24 19 20 22 21 25 25 24 32 49 62 83 51 22 24 30 55 48 40 39 37 36 36
25 21 19 16 16 18 29 24 53 41 19 25 24 23 22 23 24 23 22 24 47 33 23 24 35 25 22 25 31 37 42 40 41 26 21 26 46 32 58 58 54 44 43 42 40
25 30 31 19 16 17 24 54 41 23 21 24 24 23 22 25 24 22 25 26 37 42 37 30 26 26 24 25 25 32 51 38 58 32 42 26 29 74 56 59 60 60 57 54 48
40 37 40 20 17 31 22 24 20 24 23 22 17 18 22 22 23 20 25 34 43 35 34 55 31 22 37 31 37 45 31 56 57 60 42 28 34 37 58 55 57 60 62 60 55
29 34 35 22 19 30 40 22 26 25 24 23 20 20 17 21 20 19 22 41 32 37 34 32 43 32 33 50 38 51 47 55 52 46 54 50 46 57 54 38 46 59 59 66 62
36 44 33 26 30 35 47 38 32 28 30 27 25 22 20 19 22 21 28 29 28 31 38 55 58 50 30 64 72 69 56 50 74 59 54 64 65 44 47 48 55 58 62 67 67
59 50 42 37 45 26 30 28 33 32 29 28 29 26 23 24 30 24 28 29 30 29 45 50 55 52 27 68 63 69 53 63 55 66 80 86 65 45 55 52 54 61 68 66 66
88 86 52 45 36 34 32 28 31 35 31 30 31 30 32 30 25 33 30 32 32 27 38 35 49 61 50 49 56 64 61 63 73 81 70 68 63 50 46 52 57 63 64 70 69
92 91 74 87 38 30 36 32 33 46 38 34 37 37 37 38 34 32 31 32 36 36 39 45 77 56 48 42 50 59 64 72 89 81 95 68 68 57 72 89 92 76 67 63 62
96 94 84 53 42 38 39 63 40 44 48 52 46 39 41 60 46 52 36 36 39 34 44 42 75 64 75 47 43 55 50 55 61 66 75 78 87 90 84 77 76 77 79 81 84
99 99 98 94 82 53 61 60 84 81 68 48 46 46 48 46 45 44 44 46 47 58 56 58 72 84 84 45 49 69 56 59 72 73 94 87 83 78 80 79 81 82 83 87 78

GFSSW_925_rhum_321.txt.gz
RH
96 91 81 73 49 30 28 24 27 17 16 15 18 14 15 15 14 16 44 48 50 44 23 23 21 18 18 24 22 25 31 26 28 23 24 23 26 34 36 44 43 41 44 43 42
95 92 74 54 24 16 22 11 9 8 10 15 14 13 10 16 15 17 31 42 40 29 21 24 28 25 25 20 24 30 34 24 31 28 26 34 32 34 40 44 48 46 45 41 41
92 83 62 53 26 11 9 8 7 6 6 11 14 13 10 22 21 15 28 28 20 23 24 24 24 23 18 19 22 20 26 26 34 32 27 33 36 39 46 52 47 50 48 47 46
74 43 23 21 13 8 7 6 6 5 4 8 11 13 15 24 17 14 23 11 18 20 21 21 22 18 17 23 19 24 23 28 30 28 26 34 38 49 48 50 40 41 42 46 47
72 34 11 9 8 6 7 6 6 6 6 9 12 12 26 18 19 13 12 11 19 21 24 28 26 25 16 21 18 22 24 30 30 26 30 36 41 46 43 37 34 34 38 46 48
32 25 13 10 8 7 7 6 9 7 9 12 13 18 24 15 16 13 12 13 20 24 24 26 30 26 22 24 26 22 23 31 28 27 25 36 43 36 39 32 30 33 37 40 46
22 15 12 10 8 7 7 11 11 14 17 16 14 19 22 21 17 13 12 12 19 23 24 23 25 25 24 26 22 21 19 22 26 28 29 35 43 39 37 30 29 29 32 35 40
17 12 10 9 7 7 11 13 16 17 17 16 17 24 26 15 17 12 11 12 14 19 20 16 17 22 23 20 19 20 17 29 20 20 24 25 25 45 35 31 33 30 31 31 34
14 12 10 8 9 7 11 13 12 12 14 18 19 23 24 19 18 15 16 15 13 15 14 14 18 23 21 25 23 18 19 19 18 14 22 30 31 44 37 32 32 31 30 29 31
13 11 10 8 9 7 9 12 20 16 16 14 15 24 19 22 19 17 14 16 16 15 19 17 25 32 27 33 26 26 19 16 19 18 15 20 29 45 39 35 32 31 30 29 31
12 11 10 9 8 12 21 22 24 34 21 23 23 21 22 20 19 17 16 17 16 15 27 19 30 31 28 26 21 17 18 19 19 20 20 22 23 34 40 40 40 33 31 30 30
12 11 10 9 8 12 20 32 40 41 36 21 20 21 20 22 24 24 16 17 16 23 19 34 30 21 22 24 22 20 22 25 22 24 19 21 22 19 36 39 37 31 31 30 29
12 11 9 10 13 14 19 37 38 44 43 29 22 25 25 23 25 26 24 22 17 17 21 28 27 20 20 22 26 27 26 30 30 28 21 21 27 23 30 32 32 30 28 27 29
13 11 9 9 18 22 20 27 41 41 51 38 32 29 24 28 27 20 19 20 18 19 18 22 18 20 21 23 24 25 23 25 30 37 32 28 33 22 40 40 37 37 33 32 30
14 11 9 8 16 16 19 25 42 63 79 40 31 22 22 30 28 29 20 21 23 22 21 27 21 21 23 26 21 30 23 25 32 62 55 42 46 33 44 45 43 42 38 35 33
15 12 10 14 16 14 22 34 55 75 86 41 30 30 27 27 27 24 24 20 20 20 20 23 17 23 27 29 26 27 24 28 39 68 82 60 44 41 52 58 51 46 44 40 40
18 13 12 13 26 14 19 50 74 82 40 37 33 27 25 29 27 24 25 30 44 38 32 24 23 23 26 31 28 31 58 76 75 90 63 45 54 51 75 80 51 47 51 51 48
26 14 18 13 13 13 31 50 75 62 58 28 28 24 25 24 25 26 28 36 61 46 45 46 47 32 26 35 41 47 71 70 48 84 72 38 58 53 88 87 82 70 65 55 53
27 31 34 24 14 18 47 74 74 57 28 29 24 29 32 27 27 28 33 53 57 58 48 46 35 32 34 30 40 47 68 64 65 60 60 55 55 74 82 80 76 79 70 68 68
38 39 40 36 16 28 72 85 75 25 26 24 38 30 34 33 29 32 33 50 52 39 49 74 43 35 36 30 41 55 48 61 79 51 77 74 69 53 76 75 84 79 77 76 79
63 73 52 26 23 42 59 54 32 27 27 31 42 36 27 30 29 27 32 44 42 41 36 45 61 48 40 59 59 60 70 71 68 75 75 78 71 81 68 70 70 74 74 78 84
74 98 53 28 45 51 76 47 33 33 32 34 28 30 29 27 27 29 38 34 41 42 51 71 69 65 55 80 87 82 66 70 76 64 86 87 58 86 70 75 78 79 90 96 88
95 93 51 49 92 71 41 35 36 42 40 38 38 35 26 26 32 29 33 39 39 40 62 60 76 66 50 69 69 65 76 82 81 88 62 82 68 78 81 90 92 94 96 95 88
97 98 78 51 60 66 53 50 39 38 36 35 36 33 32 31 28 47 38 36 36 35 36 39 83 64 52 68 74 72 80 80 70 77 74 69 61 54 70 96 91 94 94 92 87
98 98 84 95 91 69 69 99 53 53 42 38 41 44 44 61 43 48 44 49 41 37 45 54 81 76 58 59 72 71 78 78 81 64 77 61 72 65 100 100 99 98 89 81 87
98 98 98 96 80 69 93 96 93 72 58 50 64 48 69 84 85 94 64 55 52 49 61 69 80 85 81 63 65 79 72 80 79 75 76 79 84 100 98 91 91 88 86 88 88
100 97 94 96 97 97 93 96 96 96 97 96 70 83 85 86 76 73 58 56 66 73 67 79 88 97 85 68 84 91 76 72 82 96 86 97 82 100 99 100 100 90 90 96 98

GFSSW_925_rhum_324.txt.gz
RH
89 74 78 49 62 50 38 34 11 9 13 14 16 16 14 13 11 12 41 46 47 47 30 21 18 18 20 24 24 28 31 26 28 25 24 26 32 40 41 47 48 47 49 50 44
87 73 58 28 28 30 31 27 14 9 8 12 13 14 12 17 18 15 28 41 40 42 21 25 26 26 26 22 25 33 34 28 30 28 27 37 36 41 42 49 52 52 50 45 38
81 67 46 17 11 8 7 9 8 7 8 9 13 13 11 25 15 14 26 31 24 22 21 24 25 24 20 22 22 22 25 30 32 30 31 37 40 44 48 47 52 54 55 52 45
67 41 19 9 8 6 7 7 8 6 6 9 12 13 19 23 10 13 12 10 20 20 21 22 22 18 21 24 20 23 26 30 31 27 31 38 42 50 50 51 50 49 49 51 53
48 20 13 11 8 8 7 7 9 7 9 10 13 11 29 16 17 13 11 12 20 20 26 28 26 24 19 21 21 26 27 31 29 36 40 39 44 46 51 44 44 46 49 53 54
23 13 12 10 8 7 7 9 9 9 12 14 14 18 20 12 16 13 12 12 21 22 24 27 29 27 22 25 24 23 27 32 28 28 32 40 44 36 41 39 38 42 51 52 53
21 13 11 9 8 7 12 12 14 14 16 15 16 18 20 19 16 12 12 12 18 22 22 22 24 23 24 24 23 21 22 24 27 32 33 40 45 47 40 35 38 39 44 48 51
14 12 10 8 9 8 13 16 16 16 16 15 21 17 21 16 17 12 11 11 15 17 17 15 17 22 23 22 18 20 20 29 22 28 26 24 23 46 37 33 38 38 43 44 46
11 10 9 8 8 7 8 13 12 15 15 17 18 22 22 19 17 15 15 14 13 13 14 14 19 22 22 25 24 22 18 21 19 16 23 28 23 48 37 33 36 36 39 40 42
11 10 8 8 8 10 13 10 16 16 14 14 16 21 20 23 19 17 14 16 17 15 19 17 31 29 30 30 23 23 20 17 20 19 19 27 38 51 43 36 36 35 36 37 40
12 10 8 8 8 10 10 16 17 30 20 25 24 23 23 20 19 16 16 18 16 18 25 20 27 30 27 26 20 18 17 18 21 20 20 24 23 35 46 43 40 36 36 35 35
14 11 8 8 9 10 12 27 37 32 24 22 21 21 20 22 27 21 16 17 17 22 23 27 28 22 23 22 20 18 20 19 23 26 19 22 24 22 45 44 38 36 35 35 34
15 12 8 8 12 14 20 38 37 42 35 30 23 25 24 25 25 26 24 23 17 19 21 30 28 20 21 20 24 30 21 27 28 28 20 26 25 20 36 39 40 32 31 31 33
18 12 8 8 13 22 22 27 41 39 66 44 30 26 23 27 25 22 20 22 18 19 20 22 18 20 20 23 24 22 23 26 32 34 34 30 34 18 41 42 38 35 33 32 32
29 14 9 9 13 14 22 30 40 61 79 38 29 21 22 26 26 26 21 20 22 21 22 24 20 21 23 25 21 28 27 30 37 63 52 35 42 26 42 44 44 43 35 32 31
37 15 10 10 18 15 21 41 56 70 78 42 29 27 26 26 25 25 24 19 20 19 21 22 18 23 28 31 28 27 31 40 60 71 70 55 44 39 55 60 54 46 42 36 38
51 18 12 12 18 14 20 48 75 82 46 41 31 26 25 27 24 23 24 25 37 31 29 24 21 23 26 29 28 38 57 77 85 84 59 45 52 57 76 85 59 45 47 50 46
68 21 18 14 12 13 31 63 76 59 67 29 28 25 24 25 24 26 27 32 62 44 47 48 49 30 26 33 38 49 66 79 94 72 70 40 66 59 90 86 88 63 66 54 54
87 35 31 29 15 15 50 77 80 65 34 29 24 26 29 27 25 26 30 49 46 56 47 51 37 32 34 32 42 44 66 65 73 67 67 56 57 65 78 77 80 75 63 65 65
72 41 42 39 18 36 79 88 72 44 28 25 33 37 35 32 26 29 35 49 48 41 52 72 51 38 35 31 41 57 47 62 80 83 85 71 72 60 81 72 78 77 68 72 81
60 90 67 33 24 51 94 87 56 37 25 29 33 42 35 34 28 32 35 45 40 39 42 50 67 47 36 56 62 61 75 73 69 81 76 69 72 77 75 69 73 76 75 81 85
79 99 55 32 48 56 82 54 34 32 32 34 30 48 50 34 34 36 39 40 42 43 50 66 70 64 51 74 91 80 73 70 75 72 84 79 68 98 91 94 88 85 95 98 93
98 94 53 56 95 94 56 47 41 41 39 38 39 40 30 31 38 33 33 39 42 44 58 62 78 65 62 69 71 69 78 74 81 84 78 70 73 89 84 90 90 100 96 97 89
98 98 89 64 66 75 70 57 46 40 36 38 36 33 31 33 34 52 41 38 40 35 41 38 79 77 70 79 77 69 72 83 73 79 72 60 54 92 88 95 94 97 96 95 89
99 98 83 90 87 86 78 97 68 59 44 42 41 41 45 46 50 38 46 44 42 36 47 54 93 71 52 57 76 66 68 73 78 65 66 54 64 64 97 96 100 93 84 76 84
99 98 98 94 80 90 96 97 94 75 56 50 66 58 68 81 84 91 72 81 91 53 63 74 95 84 86 61 64 72 61 82 74 69 70 70 78 90 97 94 87 85 83 80 79
100 98 96 96 98 97 94 90 95 95 97 97 73 92 95 94 92 86 84 82 81 73 72 81 94 95 93 71 81 87 75 75 87 96 84 92 79 100 96 100 100 90 85 88 91

GFSSW_925_rhum_327.txt.gz
RH
96 92 88 70 48 21 10 5 6 6 7 11 13 15 14 14 14 13 41 46 46 48 32 19 18 19 22 24 25 28 28 27 26 26 24 36 37 44 43 50 52 53 55 53 46
84 82 61 39 37 16 8 10 6 5 7 8 12 13 13 14 17 12 24 46 44 44 22 25 25 25 24 22 26 31 33 27 29 26 30 37 37 46 46 53 55 56 52 47 42
52 38 26 13 14 11 8 8 7 5 6 6 11 13 13 23 17 14 18 27 20 24 22 25 26 22 20 22 23 24 25 30 32 30 35 42 47 46 50 48 55 57 57 52 47
60 30 13 12 10 9 8 8 8 7 6 10 10 13 21 26 7 13 11 12 19 22 23 23 21 17 24 23 22 23 31 29 30 29 35 40 45 52 54 57 52 52 53 53 55
21 16 13 10 8 8 8 9 10 8 10 13 13 12 28 13 14 13 11 13 20 21 26 27 24 21 21 22 24 26 31 32 37 42 46 40 46 50 56 55 49 49 53 56 56
15 13 11 8 9 7 11 12 12 14 17 15 16 18 19 12 14 12 11 12 19 22 25 28 28 26 24 26 21 27 32 32 30 34 36 40 44 39 49 48 49 50 57 57 54
20 12 10 8 9 8 11 13 14 16 17 15 19 19 16 14 15 14 12 12 16 20 20 21 24 23 24 25 23 23 29 25 29 32 36 40 40 47 48 42 48 52 55 56 55
12 12 9 8 8 8 9 13 12 14 14 15 22 17 16 16 17 13 11 11 13 16 17 16 19 24 25 24 19 20 22 23 22 33 33 30 25 47 44 42 47 51 56 53 52
12 10 9 8 8 10 13 11 15 16 14 16 18 21 21 18 16 16 14 16 12 12 14 15 20 25 21 23 21 23 18 22 19 23 26 30 29 49 42 40 45 47 52 50 52
15 11 8 7 8 9 11 16 14 17 14 16 16 19 22 24 20 17 14 15 17 16 18 20 33 28 32 24 20 19 21 20 20 20 24 35 42 53 44 39 42 45 48 48 51
18 14 9 7 8 9 8 14 14 22 20 24 22 24 23 19 20 17 14 18 15 20 19 23 24 22 20 25 20 21 18 18 21 21 20 24 25 36 46 44 43 43 44 45 46
20 17 11 7 10 10 12 28 36 28 22 25 21 22 21 24 25 20 16 16 18 22 23 22 26 23 23 22 19 18 19 20 23 25 20 23 24 22 50 44 39 39 41 41 42
25 18 12 8 11 12 23 36 37 41 34 28 23 23 23 24 21 23 21 20 18 20 23 26 26 21 21 20 24 30 20 24 25 26 24 30 27 19 36 42 42 36 34 36 41
38 24 13 9 11 18 23 27 38 42 69 48 29 26 22 26 23 23 20 20 20 20 21 22 19 21 20 22 24 21 23 28 31 37 38 29 38 18 38 44 43 40 37 37 37
58 31 14 9 10 14 21 32 41 61 73 37 29 20 22 24 26 24 21 19 22 20 24 23 20 23 22 24 23 28 29 32 40 71 54 29 41 26 43 46 48 43 37 36 34
69 44 16 11 16 14 20 41 58 70 72 46 30 26 24 25 24 24 22 18 18 19 21 22 19 23 26 31 29 29 37 46 63 77 63 55 43 29 50 60 61 50 42 36 37
75 53 21 14 18 14 22 52 78 81 48 45 31 26 25 25 23 23 23 22 38 33 29 23 20 23 25 28 25 38 54 74 91 77 61 52 46 45 74 86 76 51 48 48 44
89 64 27 19 16 14 32 66 80 59 64 31 27 25 24 26 23 25 26 30 60 49 50 50 54 30 27 33 37 46 60 84 95 84 66 42 70 60 86 88 90 72 64 54 54
95 94 38 32 19 16 50 86 74 71 41 30 24 25 26 27 26 27 29 45 39 58 46 51 50 32 34 34 44 43 58 66 76 86 72 71 59 68 79 80 82 76 64 64 63
98 82 55 40 20 46 84 96 74 56 31 24 38 38 42 32 31 28 32 48 43 48 63 60 56 38 35 32 39 57 47 67 83 95 95 83 72 67 81 74 84 77 69 75 84
94 96 74 52 35 71 98 95 82 60 29 33 40 44 46 39 30 33 41 44 40 40 42 57 73 60 35 56 64 61 75 72 72 95 95 93 83 82 79 79 76 86 87 92 87
91 100 60 33 48 62 90 72 49 35 32 33 31 40 43 36 35 36 43 39 42 44 48 62 72 74 53 76 90 81 72 65 80 95 94 94 86 100 96 95 88 96 92 96 96
99 98 65 68 93 80 68 57 43 39 38 40 40 42 42 44 54 40 34 43 42 41 54 60 75 86 75 73 73 74 83 80 83 87 91 92 84 88 79 83 90 97 95 94 87
99 99 99 90 96 87 82 63 54 43 37 38 37 34 34 37 38 59 37 41 39 35 39 46 79 76 73 80 77 76 78 81 74 75 63 70 66 88 80 82 86 91 95 96 92
100 98 86 96 94 87 79 88 67 65 45 42 41 44 45 56 36 38 44 42 43 36 50 68 91 86 73 60 78 90 91 82 95 83 94 68 78 69 81 87 88 90 84 70 76
99 99 99 93 83 94 95 98 97 76 64 59 61 51 66 66 76 90 59 60 73 63 94 94 95 92 91 66 63 81 82 81 74 74 76 76 75 92 98 94 90 84 82 78 76
100 98 98 96 98 96 93 92 93 92 98 97 74 80 95 81 89 94 96 96 96 95 95 95 95 95 92 83 80 83 80 76 88 99 81 86 77 98 94 96 94 85 81 80 82

GFSSW_925_rhum_333.txt.gz
RH
74 67 55 43 39 20 9 9 13 6 6 6 8 11 11 9 13 10 34 42 53 56 44 20 19 20 22 27 30 26 29 28 28 28 25 43 47 47 45 49 52 54 54 54 45
14 18 24 17 18 20 15 12 10 8 6 6 8 12 12 12 18 11 21 49 49 52 25 26 24 24 26 23 28 30 31 27 25 25 36 45 44 48 47 53 55 56 55 52 47
66 23 10 10 10 10 10 12 14 11 7 9 10 12 14 19 15 13 11 14 15 23 25 27 27 22 21 22 24 25 26 28 34 31 41 47 49 49 52 56 52 55 56 52 50
12 15 18 11 9 9 8 13 14 13 14 15 14 12 18 17 7 12 10 10 16 20 24 25 21 19 21 18 25 19 34 33 36 44 42 45 49 52 51 57 57 50 52 52 49
14 11 10 8 8 10 9 11 13 16 16 16 16 18 26 14 12 12 10 11 16 20 26 27 20 19 18 22 26 25 36 38 45 46 48 43 50 46 58 58 54 51 50 51 51
19 14 10 8 8 8 10 10 12 13 16 17 19 20 18 8 13 13 10 11 14 20 26 27 25 23 24 26 16 33 37 41 40 43 40 41 48 44 57 53 51 50 51 50 49
23 20 15 9 8 8 9 10 11 12 14 15 21 22 14 11 15 13 10 11 13 18 21 21 24 21 25 27 28 33 31 29 38 42 44 40 42 48 55 51 53 52 50 48 49
34 25 21 14 9 9 8 9 10 12 15 16 21 20 15 16 15 13 11 11 12 14 17 17 21 26 25 23 20 23 26 32 28 39 40 35 39 54 55 53 57 56 53 50 50
56 39 28 21 13 9 8 10 15 15 15 16 19 21 19 18 17 17 13 15 13 14 17 19 21 27 20 22 18 21 21 25 16 35 40 34 27 55 54 52 57 57 56 51 52
61 57 37 26 15 11 11 10 13 15 14 17 16 18 20 20 19 18 14 16 17 16 16 20 28 27 28 22 21 16 20 19 16 21 36 42 44 54 53 52 55 56 56 53 52
62 62 52 37 18 12 15 10 19 22 19 20 21 21 22 20 22 18 15 18 16 19 15 23 19 20 21 22 20 17 17 16 21 22 24 35 38 45 52 50 54 55 56 53 51
58 62 62 47 24 14 19 24 26 26 32 25 22 23 22 24 23 20 17 16 18 17 21 20 20 22 24 24 22 21 21 22 23 25 23 24 24 22 52 49 47 50 53 50 50
70 63 66 57 28 14 24 32 34 39 46 38 24 22 21 22 19 21 21 18 20 23 24 24 23 22 22 23 28 23 26 24 23 25 26 26 26 22 47 46 43 44 44 45 46
83 74 67 63 21 15 22 28 37 48 69 51 31 26 22 25 22 24 21 20 20 21 25 24 21 21 22 22 25 28 24 29 28 32 37 29 38 25 34 51 48 44 45 44 44
97 86 74 66 24 14 23 28 42 59 80 38 31 20 24 22 24 21 22 19 21 22 24 23 22 24 23 24 22 28 30 34 36 46 46 27 40 26 39 41 45 52 44 42 42
100 99 94 78 24 21 20 44 55 71 80 49 30 25 23 24 23 22 20 19 18 18 21 22 20 23 26 31 29 38 42 52 52 61 66 50 41 40 42 47 53 53 47 43 44
99 100 100 73 35 25 26 56 79 92 47 46 36 24 25 24 23 20 20 20 35 31 29 23 21 26 25 29 26 40 53 69 79 75 64 59 36 44 62 77 68 55 52 50 47
100 100 100 90 55 58 60 91 99 66 61 33 29 27 33 26 25 24 24 30 53 45 45 46 47 29 27 33 37 42 56 75 88 92 81 57 68 60 75 84 84 76 64 54 55
100 100 100 97 93 81 91 99 96 76 55 44 29 31 33 27 28 28 31 40 38 54 48 53 39 33 36 36 44 42 55 59 88 94 94 81 73 74 74 73 81 80 66 69 66
100 100 100 100 95 90 97 97 93 60 36 29 64 54 58 37 46 34 48 54 38 48 55 58 60 38 36 34 40 51 43 66 86 94 98 82 84 68 63 69 79 77 78 78 80
100 100 100 95 95 100 99 99 95 76 40 68 78 72 61 51 39 45 57 55 36 48 46 62 70 56 38 59 63 58 64 70 78 94 92 91 77 78 69 80 81 90 82 86 83
100 100 97 99 96 99 98 93 81 84 54 84 78 83 72 52 44 44 54 55 44 48 52 62 76 75 61 84 92 79 66 74 84 92 94 91 78 95 94 92 86 94 92 95 92
99 99 99 88 98 98 90 79 76 74 70 73 62 49 47 54 90 66 45 42 44 45 55 59 73 87 75 77 73 72 78 76 78 86 85 90 78 90 87 94 89 96 97 94 89
99 100 99 100 100 99 98 98 92 57 55 77 82 89 96 97 95 98 62 45 45 40 40 47 84 81 73 74 77 76 81 79 57 81 94 79 71 87 85 90 93 93 92 94 91
100 99 90 97 94 93 98 99 99 95 65 88 98 97 92 96 87 92 77 48 44 39 57 61 96 86 72 70 81 72 74 81 71 71 88 72 74 75 76 82 86 88 80 75 74
99 99 100 100 99 96 98 98 98 98 93 96 98 88 89 97 89 88 58 57 65 55 72 88 96 94 92 78 77 85 79 77 71 70 80 82 86 95 95 92 90 89 90 90 72
100 100 97 98 99 99 98 90 97 97 100 98 97 98 97 95 97 98 98 97 95 77 84 92 94 95 92 91 82 88 81 82 88 100 82 93 84 94 94 94 91 86 80 77 72